Liberty, KS

6:35 AM CDT on July 29, 2016 (GMT -0500)
Coffeyville Municipal

Weather History for KCFV - March, 2013

Change the Weather History Date:

Tuesday, March 5, 2013

  Actual Average Record
Temperature  
Mean Temperature 38 °F -  
Max Temperature 46 °F 49 °F 79 °F (2009)
Min Temperature 30 °F 29 °F 14 °F (2015)
Degree Days  
Heating Degree Days 27    
Moisture  
Dew Point 25 °F    
Average Humidity 60    
Maximum Humidity 87    
Minimum Humidity 34    
Precipitation  
Precipitation 0.00 in - - ()
Sea Level Pressure  
Sea Level Pressure 30.24 in    
Wind  
Wind Speed 16 mph (NW)    
Max Wind Speed 28 mph    
Max Gust Speed 38 mph    
Visibility 10 miles    
Events Rain    
Averages and records for this station are not official NWS values.
T = Trace of Precipitation, MM = Missing Value Source: NWS Daily Summary

Daily Weather History Graph

Daily Weather History Graph

Search for Another Location

Airport or City:

Trip Planner

Search our weather history database for the weather conditions in past years. The results will help you decide how hot, cold, wet, or windy it might be!

Date:

Astronomy

Mar. 05, 2013 Rise Set
Actual Time 6:47 AM CST 6:20 PM CST
Civil Twilight 6:21 AM CST 6:46 PM CST
Nautical Twilight 5:51 AM CST 7:16 PM CST
Astronomical Twilight 5:21 AM CST 7:46 PM CST
Moon 1:54 AM CST (3/5) 12:06 PM CST (3/5)
Length of Visible Light 12h 25m
Length of Day
11h 33m
Last Quarter, 40% of the Moon is Illuminated
Mar 5
Last Quarter
Mar 11
New
Mar 19
First Quarter
Mar 27
Full
Apr 2
Last Quarter

Hourly Weather History & Observations

Time (CST) Temp. Windchill Dew Point Humidity Pressure Visibility Wind Dir Wind Speed Gust Speed Precip Events Conditions
1:32 AM 39.2 °F 30.2 °F 33.8 °F 81% 30.06 in 8.0 mi NNW 17.3 mph 26.5 mph 0.00 in Rain Light Rain
1:52 AM 39.0 °F 32.8 °F 35.1 °F 86% 30.07 in 10.0 mi NNW 9.2 mph - 0.00 in Rain Light Rain
2:25 AM 39.2 °F 33.0 °F 35.6 °F 87% 30.07 in 10.0 mi NNW 9.2 mph - 0.00 in Rain Light Rain
2:52 AM 39.0 °F 32.8 °F 35.1 °F 86% 30.10 in 10.0 mi NW 9.2 mph - 0.00 in   Overcast
3:52 AM 39.9 °F 32.5 °F 35.1 °F 83% 30.11 in 10.0 mi NW 12.7 mph 19.6 mph 0.00 in Rain Light Rain
4:49 AM 39.2 °F 31.6 °F 35.6 °F 87% 30.13 in 10.0 mi NW 12.7 mph - 0.00 in   Overcast
4:52 AM 39.0 °F 30.6 °F 35.1 °F 86% 30.14 in 9.0 mi NW 15.0 mph - 0.00 in   Overcast
5:00 AM 37.4 °F 25.4 °F 33.8 °F 87% 30.14 in 6.0 mi NW 27.6 mph 34.5 mph 0.00 in Rain Light Rain
5:16 AM 37.4 °F 27.5 °F 30.2 °F 75% 30.16 in 9.0 mi NNW 18.4 mph 27.6 mph 0.00 in   Overcast
5:52 AM 35.1 °F 23.0 °F 21.9 °F 59% 30.19 in 10.0 mi NW 24.2 mph 29.9 mph 0.00 in   Partly Cloudy
6:52 AM 32.0 °F 19.8 °F 18.0 °F 56% 30.22 in 10.0 mi NW 20.7 mph 27.6 mph N/A   Clear
7:52 AM 33.1 °F 20.6 °F 17.1 °F 52% 30.24 in 10.0 mi NW 23.0 mph 31.1 mph N/A   Clear
8:52 AM 35.1 °F 23.0 °F 16.0 °F 46% 30.27 in 10.0 mi NNW 24.2 mph 38.0 mph N/A   Clear
9:52 AM 37.0 °F 26.2 °F 17.1 °F 44% 30.30 in 10.0 mi NNW 21.9 mph 34.5 mph N/A   Clear
10:52 AM 39.9 °F 30.0 °F 19.0 °F 43% 30.30 in 10.0 mi WNW 21.9 mph 28.8 mph N/A   Clear
11:52 AM 42.1 °F 33.1 °F 19.0 °F 40% 30.30 in 10.0 mi NW 20.7 mph - N/A   Clear
12:52 PM 44.1 °F 35.2 °F 19.9 °F 38% 30.29 in 10.0 mi NW 23.0 mph 31.1 mph N/A   Clear
1:52 PM 46.9 °F - 21.0 °F 36% 30.28 in 10.0 mi NW 20.7 mph 29.9 mph N/A   Clear
2:52 PM 46.9 °F - 21.0 °F 36% 30.28 in 10.0 mi NW 21.9 mph 31.1 mph N/A   Clear
3:52 PM 46.9 °F - 19.9 °F 34% 30.27 in 10.0 mi NW 21.9 mph 31.1 mph N/A   Clear
4:52 PM 46.0 °F 38.0 °F 21.0 °F 37% 30.28 in 10.0 mi NW 21.9 mph 27.6 mph N/A   Clear
5:52 PM 44.1 °F 36.8 °F 21.0 °F 40% 30.29 in 10.0 mi NNW 16.1 mph - N/A   Clear
6:52 PM 41.0 °F 33.9 °F 21.0 °F 45% 30.32 in 10.0 mi NW 12.7 mph - N/A   Clear
7:52 PM 37.0 °F 30.4 °F 21.9 °F 54% 30.34 in 10.0 mi NNW 9.2 mph - N/A   Clear
8:52 PM 34.0 °F 28.0 °F 21.9 °F 61% 30.37 in 10.0 mi NNW 6.9 mph - N/A   Clear
9:52 PM 32.0 °F 26.4 °F 21.0 °F 64% 30.39 in 10.0 mi NNW 5.8 mph - N/A   Clear
10:52 PM 30.0 °F 22.4 °F 21.0 °F 69% 30.40 in 10.0 mi North 8.1 mph - N/A   Clear
11:52 PM 30.0 °F 26.5 °F 21.0 °F 69% 30.40 in 10.0 mi NNW 3.5 mph - N/A   Clear